Location: Gwatt
(46.7204°N, 7.6223°E)
Time: 01:16:02
(UTC+00:00)

Vanguard 3 - Pass Details

Date: 22 January 2021
Orbit: 508 x 3262 km, 33.4° (Epoch: 03 March)

Event Time Altitude Azimuth Distance (km) Brightness Sun altitude
Exits shadow 02:25:40 16° 131° (SE) 3,050 10.2 -47.0°
Drops below altitude 10° 02:30:07 10° 106° (ESE) 4,008 11.0 -46.3°
Sets 02:36:04 0° 90° (E) 5,639 12.1 -45.3°
